Weather History for Suffolk, VA

Change the Weather History Date:

Tuesday, October 8, 2013

  Actual Average Record
Temperature  
Mean Temperature 62 °F -  
Max Temperature 64 °F 72 °F 89 °F (2007)
Min Temperature 60 °F 51 °F 37 °F (1953)
Degree Days  
Heating Degree Days 3    
Growing Degree Days 12 (Base 50)    
Moisture  
Dew Point 55 °F    
Average Humidity 74    
Maximum Humidity 94    
Minimum Humidity 59    
Precipitation  
Precipitation 0.00 in - - ()
Sea Level Pressure  
Sea Level Pressure 30.14 in    
Wind  
Wind Speed 11 mph (NNE)    
Max Wind Speed 22 mph    
Max Gust Speed 30 mph    
Visibility 10 miles    
Events Rain    
Averages and records for this station are not official NWS values.
T = Trace of Precipitation, MM = Missing Value Source: NWS Daily Summary

Daily Weather History Graph

Daily Weather History Graph

Search for Another Location

Airport:

Trip Planner

Search our weather history database for the weather conditions in past years. The results will help you decide how hot, cold, wet, or windy it might be!

Date:

Astronomy

Oct. 08, 2013 Rise Set
Actual Time 7:07 AM EDT 6:39 PM EDT
Civil Twilight 6:41 AM EDT 7:05 PM EDT
Nautical Twilight 6:11 AM EDT 7:35 PM EDT
Astronomical Twilight 5:41 AM EDT 8:05 PM EDT
Moon 10:53 AM EDT (10/8) 9:19 PM EDT (10/8)
Length of Visible Light 12h 23m
Length of Day
11h 31m
Waxing Crescent, 16% of the Moon is Illuminated
Oct 8
Waxing Crescent
Oct 11
First Quarter
Oct 18
Full
Oct 26
Last Quarter
Nov 3
New

Hourly Weather History & Observations

Time (EDT) Temp. Dew Point Humidity Pressure Visibility Wind Dir Wind Speed Gust Speed Precip Events Conditions
12:15 AM 64.4 °F 62.6 °F 94% 30.02 in 10.0 mi North 9.2 mph - N/A   Light Drizzle
12:35 AM 64.4 °F 60.8 °F 88% 30.02 in 10.0 mi North 8.1 mph - N/A   Overcast
12:55 AM 64.4 °F 60.8 °F 88% 30.02 in 10.0 mi North 9.2 mph - N/A   Overcast
1:15 AM 64.4 °F 59.0 °F 83% 30.02 in 10.0 mi North 6.9 mph - N/A Rain Rain
1:35 AM 62.6 °F 57.2 °F 82% 30.03 in 10.0 mi North 9.2 mph - N/A   Overcast
1:55 AM 64.4 °F 57.2 °F 77% 30.04 in 10.0 mi North 8.1 mph - N/A   Overcast
2:15 AM 64.4 °F 55.4 °F 73% 30.05 in 10.0 mi North 8.1 mph - N/A   Overcast
2:35 AM 64.4 °F 55.4 °F 73% 30.06 in 10.0 mi North 8.1 mph - N/A   Overcast
2:55 AM 64.4 °F 55.4 °F 73% 30.05 in 10.0 mi North 6.9 mph - N/A Rain Light Rain
3:15 AM 62.6 °F 55.4 °F 77% 30.06 in 10.0 mi NNE 8.1 mph - N/A   Light Drizzle
3:35 AM 62.6 °F 55.4 °F 77% 30.05 in 10.0 mi North 9.2 mph - N/A   Overcast
3:55 AM 62.6 °F 53.6 °F 72% 30.06 in 10.0 mi North 8.1 mph - N/A   Overcast
4:15 AM 62.6 °F 53.6 °F 72% 30.06 in 10.0 mi North 8.1 mph - N/A   Mostly Cloudy
4:35 AM 62.6 °F 53.6 °F 72% 30.07 in 10.0 mi North 6.9 mph - N/A   Mostly Cloudy
4:55 AM 62.6 °F 53.6 °F 72% 30.08 in 10.0 mi North 9.2 mph - N/A   Overcast
5:15 AM 62.6 °F 53.6 °F 72% 30.08 in 10.0 mi North 8.1 mph - N/A   Overcast
5:35 AM 62.6 °F 53.6 °F 72% 30.09 in 10.0 mi North 8.1 mph - N/A   Overcast
5:55 AM 62.6 °F 55.4 °F 77% 30.09 in 10.0 mi NNE 13.8 mph - N/A   Overcast
6:15 AM 64.4 °F 51.8 °F 64% 30.11 in 10.0 mi NNE 13.8 mph 20.7 mph N/A   Overcast
6:35 AM 64.4 °F 51.8 °F 64% 30.10 in 10.0 mi NNE 10.4 mph 19.6 mph N/A   Overcast
6:55 AM 64.4 °F 51.8 °F 64% 30.11 in 10.0 mi NNE 16.1 mph 24.2 mph N/A   Overcast
7:15 AM 62.6 °F 51.8 °F 68% 30.12 in 10.0 mi NNE 15.0 mph 24.2 mph N/A   Overcast
7:35 AM 62.6 °F 51.8 °F 68% 30.13 in 10.0 mi NNE 12.7 mph 24.2 mph N/A   Overcast
7:55 AM 64.4 °F 50.0 °F 59% 30.14 in 10.0 mi NE 16.1 mph 21.9 mph N/A   Overcast
8:15 AM 62.6 °F 51.8 °F 68% 30.16 in 10.0 mi NNE 19.6 mph 26.5 mph N/A   Overcast
8:35 AM 62.6 °F 51.8 °F 68% 30.17 in 10.0 mi NNE 18.4 mph 26.5 mph N/A   Overcast
8:55 AM 62.6 °F 51.8 °F 68% 30.17 in 10.0 mi NNE 17.3 mph 28.8 mph N/A   Overcast
9:15 AM 62.6 °F 51.8 °F 68% 30.17 in 10.0 mi NNE 16.1 mph 27.6 mph N/A   Overcast
9:35 AM 62.6 °F 53.6 °F 72% 30.18 in 10.0 mi NE 21.9 mph 29.9 mph N/A   Overcast
9:55 AM 62.6 °F 53.6 °F 72% 30.18 in 10.0 mi NE 19.6 mph 24.2 mph N/A   Overcast
10:15 AM 60.8 °F 53.6 °F 77% 30.19 in 10.0 mi NE 13.8 mph 21.9 mph N/A   Overcast
10:35 AM 60.8 °F 53.6 °F 77% 30.19 in 10.0 mi NE 16.1 mph 21.9 mph N/A   Overcast
10:55 AM 60.8 °F 53.6 °F 77% 30.19 in 10.0 mi NE 11.5 mph 17.3 mph N/A   Overcast
11:15 AM 62.6 °F 53.6 °F 72% 30.18 in 10.0 mi NE 13.8 mph 19.6 mph N/A   Overcast
11:35 AM 62.6 °F 53.6 °F 72% 30.19 in 10.0 mi NE 13.8 mph - N/A   Overcast
11:55 AM 62.6 °F 53.6 °F 72% 30.19 in 10.0 mi NE 12.7 mph - N/A   Overcast
12:15 PM 64.4 °F 53.6 °F 68% 30.19 in 10.0 mi NE 18.4 mph 23.0 mph N/A   Overcast
12:35 PM 64.4 °F 53.6 °F 68% 30.18 in 10.0 mi NE 12.7 mph 20.7 mph N/A   Overcast
12:55 PM 62.6 °F 53.6 °F 72% 30.17 in 10.0 mi NNE 12.7 mph 16.1 mph N/A   Overcast
1:15 PM 62.6 °F 53.6 °F 72% 30.17 in 10.0 mi NNE 16.1 mph - N/A   Overcast
1:35 PM 64.4 °F 53.6 °F 68% 30.17 in 10.0 mi NNE 10.4 mph 17.3 mph N/A   Overcast
1:55 PM 64.4 °F 53.6 °F 68% 30.18 in 10.0 mi NNE 13.8 mph 17.3 mph N/A   Overcast
2:15 PM 64.4 °F 53.6 °F 68% 30.17 in 10.0 mi NE 13.8 mph - N/A   Overcast
2:35 PM 64.4 °F 53.6 °F 68% 30.16 in 10.0 mi NNE 12.7 mph 18.4 mph N/A   Overcast
2:55 PM 64.4 °F 53.6 °F 68% 30.17 in 10.0 mi NNE 12.7 mph 17.3 mph N/A   Overcast
3:15 PM 64.4 °F 53.6 °F 68% 30.17 in 10.0 mi NNE 11.5 mph 19.6 mph N/A   Overcast
3:35 PM 64.4 °F 53.6 °F 68% 30.17 in 10.0 mi NNE 12.7 mph 17.3 mph N/A   Overcast
3:55 PM 64.4 °F 53.6 °F 68% 30.17 in 10.0 mi NNE 9.2 mph 17.3 mph N/A   Mostly Cloudy
4:15 PM 64.4 °F 53.6 °F 68% 30.17 in 10.0 mi NNE 9.2 mph - N/A   Overcast
4:35 PM 64.4 °F 53.6 °F 68% 30.17 in 10.0 mi NE 10.4 mph 18.4 mph N/A   Overcast
4:55 PM 64.4 °F 55.4 °F 73% 30.17 in 10.0 mi NNE 8.1 mph - N/A   Scattered Clouds
5:15 PM 64.4 °F 55.4 °F 73% 30.17 in 10.0 mi NNE 10.4 mph 16.1 mph N/A   Scattered Clouds
5:35 PM 62.6 °F 55.4 °F 77% 30.17 in 10.0 mi NNE 9.2 mph - N/A   Clear
5:55 PM 62.6 °F 55.4 °F 77% 30.18 in 10.0 mi NNE 6.9 mph - N/A   Mostly Cloudy
6:15 PM 62.6 °F 55.4 °F 77% 30.18 in 10.0 mi NNE 8.1 mph - N/A   Overcast
6:35 PM 62.6 °F 55.4 °F 77% 30.18 in 10.0 mi NNE 11.5 mph - N/A   Overcast
6:55 PM 62.6 °F 55.4 °F 77% 30.17 in 10.0 mi NNE 8.1 mph - N/A   Overcast
7:15 PM 64.4 °F 57.2 °F 77% 30.17 in 10.0 mi NNE 11.5 mph 16.1 mph N/A   Overcast
7:35 PM 64.4 °F 57.2 °F 77% 30.18 in 10.0 mi NNE 9.2 mph 19.6 mph N/A   Overcast
7:55 PM 64.4 °F 57.2 °F 77% 30.18 in 10.0 mi NNE 9.2 mph 16.1 mph N/A   Overcast
8:15 PM 64.4 °F 59.0 °F 83% 30.17 in 10.0 mi NNE 11.5 mph 19.6 mph N/A   Mostly Cloudy
8:35 PM 64.4 °F 59.0 °F 83% 30.18 in 10.0 mi NNE 15.0 mph 21.9 mph N/A Rain Light Rain
8:55 PM 64.4 °F 57.2 °F 77% 30.18 in 10.0 mi NNE 13.8 mph 21.9 mph N/A   Mostly Cloudy
9:15 PM 64.4 °F 57.2 °F 77% 30.18 in 10.0 mi NNE 11.5 mph 18.4 mph N/A Rain Light Rain
9:35 PM 62.6 °F 57.2 °F 82% 30.18 in 10.0 mi NNE 13.8 mph 18.4 mph N/A Rain Light Rain
9:55 PM 62.6 °F 57.2 °F 82% 30.19 in 10.0 mi NNE 11.5 mph 18.4 mph N/A Rain Light Rain
10:15 PM 62.6 °F 57.2 °F 82% 30.19 in 10.0 mi NNE 11.5 mph 19.6 mph N/A   Light Drizzle
10:35 PM 62.6 °F 57.2 °F 82% 30.20 in 10.0 mi NE 12.7 mph - N/A Rain Light Rain
10:55 PM 62.6 °F 57.2 °F 82% 30.20 in 10.0 mi NNE 9.2 mph 16.1 mph N/A Rain Light Rain
11:15 PM 62.6 °F 57.2 °F 82% 30.20 in 10.0 mi NNE 9.2 mph 18.4 mph N/A Rain Light Rain
11:35 PM 62.6 °F 57.2 °F 82% 30.19 in 10.0 mi NNE 10.4 mph 18.4 mph N/A   Light Drizzle
11:55 PM 62.6 °F 57.2 °F 82% 30.18 in 10.0 mi NNE 12.7 mph 18.4 mph N/A Rain Light Rain